Location: Newark
(7.0858°N, 171.3717°E)
Time: 07:57:54
(UTC+00:00)

Courier 1B - Pass Details

Date: 01 December 2020
Orbit: 962 x 1209 km, 28.3° (Epoch: 20 January)

Event Time Altitude Azimuth Distance (km) Brightness Sun altitude
Rises 15:46:49 0° 305° (NW) 3,939 - -38.9°
Reaches altitude 10° 15:49:35 10° 309° (NW) 3,015 - -38.3°
Maximum altitude 15:56:59 60° 28° (NNE) 1,330 - -36.6°
Exits shadow 15:58:02 55° 60° (ENE) 1,390 8.3 -36.4°
Drops below altitude 10° 16:04:41 10° 106° (ESE) 3,134 10.9 -34.8°
Sets 16:07:37 0° 110° (ESE) 4,105 11.8 -34.2°
